Showing default

COSMOS 2168, 21782

Orbit data source: Space-Track

COSMOS 2168, 21782 is a payload satellite owned by UNKS RF (CIS) in LEO that was launched on Tue, 12 Nov 1991 UTC via a TSIKLON-3 launch vehicle from the Plesetsk Missile And Space Complex (PKMTR). Payload-class satellites include a variety of spacecraft equipped with specific instruments for various scientific and technological missions. These include communications satellites like Starlink; space stations such as the ISS; scientific satellites like the Hubble; Earth observation satellites from companies like Planet Labs, Umbra, and HawkEye 360; GPS; miniature CubeSats for education and research; and military/defense satellites.

Loading next visibility...
Identifier
21782, 1991-077D
Orbit
LEO
Country
Flag of CISCIS
Related business
Manufacturer
NPO PM
Mission
Defense Communications
Bus & Motor
STRELA-3, Unknown motor
Mass
225 kg wet, 225 kg dry
Launch date (UTC)
1991-11-12 (34 years ago)
Launch vehicle
TSIKLON-3
Launch site
Plesetsk Missile And Space Complex (PKMTR)
Object type
Payload
Rocket body
Debris
Shape & HBR
Cyl, 0.8 m
Radar Cross Section
1.257 m², Large (>1 m²)

Expand to show TLE details & history
Last TLE update: 8 hours ago

TLE from 8 hours ago
0 COSMOS 2168
1 21782U 91077D   26036.21243043  .00000039  00000-0  15222-3 0  9997
2 21782  82.5980 297.3972 0013295 329.6527 186.1736 12.65528226581103
Epoch: 2026-02-05T05:05Z
TLE epoch observation values (Epoch: 2026-02-05T05:05:53.989Z)
Latitude
23.9974°
Longitude
-97.74475°
Altitude
1,413.252 km
Speed
7.151 km/s
True Right ascension
07h 36m 23s
True Declination
23° 52' 50"
Sunlit
Object was in full shadow at epoch
Visualization orbit readout
Latitude
Unknown
Longitude
Unknown
Altitude
Unknown
Speed
Unknown
Apparent Right ascension
Unknown
Apparent Declination
Unknown
Sunlit
N/A
Visualization observer readout
Local Sidereal Time
15:33:56
Azimuth
Unknown
Elevation
Unknown
Doppler factor
Unknown
Orbital elements
Apogee altitude
1,407.863 km
Perigee altitude
1,387.187 km
Semi-major axis
7,775.662 km
Eccentricity
0.00133
Inclination
82.598°
RAAN
297.3972°
Arg. of periapsis
329.6527°
True anomaly
186.15724°
Mean anomaly
186.1736°
Eccentric anomaly
186.16542°
Mean motion
3.16546 °/min
Orbital period
113.73 mins
BSTAR
0.00015222
Loading maneuver chart data...
Computing Atmospheric mass density...
Loading historical data...
Loading historical data...
Loading historical data...
Loading historical data...
Loading historical data...
Loading historical data...
Loading historical data...

Documentation

Showing up to 5 results
|